Simultaneous Nadir Overpasses (SNOs) Predictions

Prediction of SNOs between NOAA-19 and NPP Satellite Orbit:

Table of predicted SNOs for the next 14.0 days since TLE Epoch: 8/2/2013
Index Date (NOAA-19) Time (NOAA-19) Lat,Lon (NOAA-19) SZA (NOAA-19 ) Date (NPP) Time (NPP) Lat,Lon (NPP) SZA (NPP ) Distance(km) Time Diff (sec)
1 08/03/2013 05:44:48 80.96, 40.44 67.49 08/03/2013 05:45:57 80.95, 40.62 67.43 3.09 69
2 08/03/2013 06:35:51 -80.94,-151.69 112.60 08/03/2013 06:36:41 -80.94,-151.80 112.61 1.96 50
3 08/03/2013 07:26:51 80.94, 15.46 67.43 08/03/2013 07:27:26 80.94, 15.60 67.39 2.59 35
4 08/03/2013 08:17:53 -80.90,-176.32 112.71 08/03/2013 08:18:09 -80.91,-176.45 112.70 2.39 16
5 08/03/2013 09:08:54 80.92, -9.53 67.37 08/03/2013 09:08:55 80.92, -9.41 67.35 2.12 1
6 08/03/2013 09:59:56 -80.89, 158.69 112.77 08/03/2013 09:59:38 -80.89, 158.53 112.74 2.81 18
7 08/03/2013 10:50:56 80.89, -34.15 67.25 08/03/2013 10:50:23 80.89, -34.06 67.26 1.63 33
8 08/03/2013 11:41:58 -80.85, 134.05 112.89 08/03/2013 11:41:06 -80.86, 133.87 112.83 3.23 52
9 08/03/2013 12:32:58 80.85, -58.78 67.14 08/03/2013 12:31:51 80.85, -58.72 67.16 1.17 67
10 08/15/2013 18:51:46 80.93,-155.49 70.91 08/15/2013 18:52:49 80.93,-155.64 70.90 2.57 63
11 08/15/2013 19:42:48 -80.94, 11.65 109.07 08/15/2013 19:43:34 -80.94, 11.62 109.09 0.50 46
12 08/15/2013 20:33:49 80.91, 179.51 70.86 08/15/2013 20:34:18 80.92, 179.34 70.86 2.92 29
13 08/15/2013 21:24:51 -80.92, -13.36
